Regional Weather Roundup
Issued by NWS Raleigh/Durham, NC

Home | Current Version | Previous Version | Text Only | Print | Product List | Glossary On
Versions: 1 2 3 4 5 6 7 8 9 10 11 12 13 14 15 16 17 18 19 20 21 22 23 24 25 26 27 28 29 30 31 32 33 34 35 36 37 38 39 40 41 42 43 44 45 46 47 48 49 50
000
ASUS42 KRAH 041310
RWRRAH
NORTH CAROLINA WEATHER ROUNDUP
NATIONAL WEATHER SERVICE RALEIGH NC
900 AM EDT SAT JUL 04 2015

NOTE: "FAIR" INDICATES FEW OR NO CLOUDS BELOW 12,000 FEET WITH NO
SIGNIFICANT WEATHER AND/OR OBSTRUCTIONS TO VISIBILITY.

NCZ001-053-055-056-065-067-041400-
WESTERN NORTH CAROLINA

CITY           SKY/WX    TMP DP  RH WIND       PRES   REMARKS
ASHEVILLE      CLOUDY    67  64  90 NW8       30.05R
JEFFERSON      CLOUDY    66  59  78 W6        30.07R
HICKORY        CLOUDY    72  66  81 SW6       29.99S
RUTHERFORDTON  NOT AVBL
MOUNT AIRY     MOSUNNY   73  70  88 CALM      30.00R
$$

NCZ021-022-025-041-071-084-088-041400-
CENTRAL NORTH CAROLINA

CITY           SKY/WX    TMP DP  RH WIND       PRES   REMARKS
CHARLOTTE      CLOUDY    76  67  73 W9        29.99S
GREENSBORO     PTSUNNY   74  69  85 W10       29.97R
WINSTON-SALEM  MOSUNNY   73  67  81 SW8       29.98S
RALEIGH-DURHAM PTSUNNY   76  69  79 W12G20    29.97R
FORT BRAGG     MOSUNNY   79  70  73 SW12      29.97R
FAYETTEVILLE   MOSUNNY   80  69  69 SW14G21   29.98R
$$

NCZ011-015-027-028-043-044-047-080-103-041400-
NORTHEASTERN NORTH CAROLINA

CITY           SKY/WX    TMP DP  RH WIND       PRES   REMARKS
ROANOKE RAPIDS CLOUDY    73  70  88 SW9       29.94S
ROCKY MT-WILSO SUNNY     79  69  71 SW12G22   29.95S
GREENVILLE     SUNNY     79  72  78 W9        29.98S
WASHINGTON     SUNNY     78  71  78 W10G16    29.96F
ELIZABETH CITY NOT AVBL
MANTEO         PTSUNNY   77  71  81 W14G20    29.94F
CAPE HATTERAS  PTSUNNY   80  71  74 W14G29    29.97S
$$

NCZ078-087-090-091-093-098-101-041400-
SOUTHEASTERN NORTH CAROLINA

CITY           SKY/WX    TMP DP  RH WIND       PRES   REMARKS
LUMBERTON      MOSUNNY   76  68  76 SW13      30.00S
GOLDSBORO      MOSUNNY   80  72  77 SW13G20   29.95S
KINSTON        MOSUNNY   81  70  69 SW10      29.98R
KENANSVILLE    MOSUNNY   80  69  70 SW8G18    30.00R
NEW BERN       SUNNY     81  71  71 W12G17    29.98F
CHERRY POINT   SUNNY     83  71  67 SW12      29.99S
BEAUFORT       SUNNY     82  74  76 SW13      29.99S
WILMINGTON     CLOUDY    81  67  62 W15G24    30.02R
$$



USA.gov is the U.S. government's official web portal to all federal, state and local government web resources and services.